Location: Dehesa de la Cepeda
(40.6574°N, 4.3013°W)
Time: 21:15:35
(UTC+00:00)

Vanguard 2 Rocket - Pass Details

Date: 08 August 2021
Orbit: 556 x 3324 km, 32.9° (Epoch: 19 September)

Event Time Altitude Azimuth Distance (km) Brightness Sun altitude
Rises 03:12:41 0° 212° (SSW) 5,226 - -20.9°
Reaches altitude 10° 03:18:21 10° 193° (SSW) 3,600 - -20.2°
Exits shadow 03:20:53 14° 178° (S) 3,006 9.2 -19.8°
Maximum altitude 03:22:59 15° 161° (SSE) 2,675 9.0 -19.6°
Drops below altitude 10° 03:26:36 10° 126° (SE) 2,670 9.4 -19.1°
Sets 03:29:49 0° 103° (ESE) 3,278 10.3 -18.6°
